QPF
0.01 0.02 0.03 0.03 0.04 0.04 0.06 0.07 0.08 0.08 0.08 0.07 0.05 0.05 0.04 0.03 0.03 0.02 0.01 0.02 0.06 0.12 0.13 0.12 0.09 0.05 0.03 0.03 0.02 0.03 0.05 0.04 0.04 0.03 0.04 0.03 0.02 0.03 0.03 0.03 0.03 0.03 0.03
0.00 0.01 0.02 0.03 0.03 0.03 0.05 0.05 0.06 0.06 0.06 0.06 0.05 0.06 0.06 0.04 0.03 0.02 0.01 0.02 0.04 0.09 0.11 0.14 0.12 0.08 0.04 0.03 0.02 0.03 0.04 0.05 0.04 0.04 0.04 0.04 0.03 0.01 0.02 0.03 0.03 0.03 0.03
0.00 0.00 0.01 0.02 0.02 0.02 0.04 0.05 0.07 0.08 0.07 0.05 0.04 0.05 0.06 0.06 0.05 0.04 0.03 0.03 0.03 0.07 0.10 0.13 0.12 0.10 0.07 0.04 0.03 0.03 0.04 0.04 0.03 0.03 0.04 0.03 0.03 0.01 0.01 0.02 0.03 0.02 0.02
0.00 0.00 0.00 0.00 0.01 0.03 0.04 0.05 0.06 0.06 0.07 0.06 0.05 0.04 0.05 0.05 0.05 0.05 0.05 0.05 0.06 0.06 0.09 0.11 0.13 0.11 0.12 0.08 0.05 0.06 0.06 0.04 0.03 0.02 0.03 0.03 0.03 0.02 0.02 0.03 0.03 0.02 0.02
0.00 0.00 0.00 0.00 0.01 0.02 0.03 0.03 0.04 0.04 0.05 0.06 0.07 0.07 0.04 0.04 0.05 0.06 0.07 0.07 0.09 0.08 0.07 0.08 0.11 0.13 0.14 0.12 0.10 0.07 0.06 0.05 0.03 0.02 0.02 0.02 0.02 0.01 0.02 0.02 0.03 0.03 0.03
0.00 0.00 0.00 0.00 0.01 0.01 0.02 0.03 0.03 0.04 0.05 0.08 0.10 0.10 0.07 0.07 0.06 0.09 0.08 0.06 0.08 0.09 0.08 0.07 0.08 0.10 0.12 0.13 0.13 0.11 0.09 0.07 0.04 0.03 0.02 0.02 0.01 0.01 0.01 0.02 0.03 0.03 0.03
0.00 0.01 0.01 0.00 0.01 0.02 0.02 0.03 0.04 0.06 0.06 0.08 0.12 0.13 0.10 0.07 0.07 0.08 0.10 0.08 0.08 0.09 0.08 0.06 0.06 0.06 0.07 0.09 0.10 0.11 0.10 0.10 0.07 0.05 0.04 0.03 0.02 0.01 0.01 0.01 0.03 0.03 0.03
0.01 0.01 0.01 0.01 0.01 0.01 0.02 0.03 0.05 0.06 0.07 0.08 0.11 0.16 0.13 0.09 0.06 0.05 0.07 0.07 0.08 0.10 0.09 0.07 0.06 0.07 0.07 0.07 0.05 0.09 0.10 0.10 0.10 0.08 0.06 0.05 0.03 0.02 0.01 0.01 0.02 0.03 0.04
0.01 0.01 0.02 0.02 0.01 0.01 0.02 0.02 0.03 0.04 0.05 0.07 0.08 0.13 0.14 0.10 0.07 0.04 0.04 0.04 0.05 0.07 0.10 0.09 0.07 0.06 0.08 0.08 0.07 0.08 0.09 0.09 0.10 0.11 0.11 0.07 0.06 0.04 0.03 0.02 0.02 0.03 0.03
0.01 0.01 0.01 0.02 0.02 0.03 0.03 0.03 0.03 0.04 0.04 0.05 0.07 0.09 0.10 0.09 0.08 0.06 0.04 0.04 0.05 0.05 0.07 0.07 0.07 0.07 0.08 0.08 0.09 0.10 0.11 0.10 0.10 0.11 0.12 0.11 0.09 0.06 0.05 0.04 0.03 0.02 0.02
0.01 0.00 0.01 0.01 0.02 0.01 0.02 0.02 0.02 0.03 0.03 0.04 0.06 0.08 0.09 0.09 0.07 0.06 0.06 0.05 0.05 0.04 0.05 0.06 0.05 0.07 0.10 0.09 0.09 0.09 0.09 0.09 0.10 0.11 0.11 0.12 0.12 0.09 0.06 0.04 0.03 0.03 0.02
0.02 0.01 0.01 0.01 0.01 0.01 0.01 0.01 0.01 0.02 0.03 0.05 0.05 0.05 0.08 0.09 0.09 0.06 0.05 0.06 0.06 0.05 0.05 0.05 0.05 0.05 0.07 0.09 0.10 0.10 0.09 0.08 0.08 0.09 0.10 0.10 0.11 0.12 0.10 0.07 0.05 0.04 0.04
0.01 0.01 0.02 0.01 0.01 0.02 0.01 0.01 0.01 0.02 0.03 0.04 0.05 0.06 0.05 0.04 0.05 0.06 0.05 0.04 0.05 0.06 0.05 0.04 0.05 0.06 0.06 0.07 0.08 0.10 0.10 0.09 0.08 0.08 0.09 0.08 0.09 0.11 0.12 0.12 0.10 0.08 0.06
0.01 0.01 0.01 0.01 0.01 0.01 0.01 0.01 0.01 0.01 0.02 0.02 0.03 0.04 0.05 0.04 0.03 0.04 0.04 0.04 0.03 0.05 0.06 0.05 0.04 0.05 0.06 0.07 0.08 0.10 0.10 0.11 0.10 0.09 0.08 0.08 0.07 0.09 0.11 0.12 0.12 0.11 0.09
0.01 0.01 0.01 0.01 0.01 0.01 0.02 0.01 0.01 0.02 0.03 0.03 0.03 0.03 0.04 0.04 0.03 0.02 0.02 0.03 0.03 0.04 0.05 0.05 0.05 0.04 0.05 0.06 0.07 0.06 0.05 0.09 0.11 0.10 0.08 0.07 0.07 0.07 0.08 0.10 0.12 0.13 0.13
0.01 0.01 0.01 0.01 0.01 0.01 0.02 0.01 0.01 0.02 0.04 0.03 0.03 0.03 0.03 0.03 0.02 0.01 0.01 0.02 0.02 0.03 0.04 0.06 0.05 0.04 0.05 0.06 0.07 0.06 0.04 0.07 0.09 0.09 0.08 0.07 0.07 0.07 0.09 0.09 0.09 0.09 0.10
0.00 0.00 0.01 0.01 0.02 0.02 0.01 0.02 0.02 0.02 0.03 0.02 0.02 0.03 0.03 0.02 0.02 0.01 0.01 0.02 0.02 0.02 0.03 0.04 0.05 0.06 0.06 0.07 0.07 0.06 0.07 0.07 0.06 0.09 0.09 0.08 0.07 0.07 0.07 0.08 0.10 0.09 0.07
0.00 0.01 0.01 0.01 0.02 0.02 0.02 0.03 0.03 0.02 0.03 0.03 0.02 0.02 0.02 0.01 0.01 0.01 0.01 0.01 0.02 0.02 0.02 0.03 0.04 0.05 0.06 0.07 0.07 0.07 0.07 0.07 0.05 0.06 0.07 0.07 0.07 0.06 0.06 0.05 0.07 0.08 0.10
0.01 0.01 0.01 0.01 0.01 0.02 0.03 0.03 0.03 0.03 0.03 0.02 0.02 0.02 0.02 0.01 0.01 0.01 0.01 0.01 0.02 0.02 0.02 0.02 0.04 0.05 0.06 0.07 0.06 0.06 0.06 0.06 0.06 0.05 0.05 0.05 0.06 0.05 0.05 0.04 0.04 0.05 0.06
0.01 0.01 0.01 0.03 0.03 0.04 0.03 0.03 0.03 0.03 0.02 0.01 0.01 0.01 0.01 0.01 0.01 0.01 0.01 0.01 0.01 0.02 0.02 0.03 0.04 0.05 0.06 0.07 0.06 0.06 0.04 0.04 0.05 0.05 0.05 0.05 0.06 0.08 0.07 0.06 0.04 0.04 0.04
0.01 0.01 0.01 0.01 0.02 0.03 0.04 0.04 0.02 0.02 0.02 0.02 0.01 0.01 0.01 0.01 0.01 0.01 0.01 0.01 0.01 0.01 0.02 0.02 0.03 0.03 0.04 0.06 0.06 0.04 0.05 0.04 0.04 0.04 0.05 0.05 0.05 0.05 0.06 0.08 0.07 0.05 0.04
0.00 0.00 0.00 0.01 0.01 0.02 0.03 0.04 0.02 0.01 0.01 0.01 0.01 0.02 0.01 0.01 0.02 0.02 0.01 0.01 0.01 0.01 0.01 0.01 0.01 0.02 0.03 0.05 0.07 0.05 0.05 0.05 0.05 0.04 0.04 0.05 0.04 0.03 0.04 0.04 0.05 0.06 0.05
0.00 0.00 0.01 0.01 0.01 0.02 0.02 0.03 0.03 0.03 0.02 0.02 0.02 0.02 0.01 0.01 0.01 0.01 0.01 0.01 0.01 0.01 0.01 0.01 0.01 0.02 0.02 0.04 0.07 0.08 0.06 0.06 0.05 0.05 0.05 0.06 0.05 0.03 0.03 0.03 0.05 0.05 0.06
0.00 0.00 0.00 0.01 0.01 0.01 0.02 0.02 0.04 0.03 0.01 0.01 0.02 0.02 0.02 0.01 0.01 0.00 0.00 0.00 0.00 0.01 0.01 0.01 0.01 0.01 0.02 0.02 0.05 0.08 0.07 0.07 0.06 0.06 0.05 0.04 0.04 0.03 0.03 0.03 0.05 0.06 0.07
0.00 0.00 0.00 0.00 0.00 0.01 0.02 0.02 0.02 0.02 0.01 0.00 0.00 0.01 0.01 0.02 0.02 0.01 0.00 0.00 0.01 0.01 0.01 0.01 0.02 0.02 0.02 0.03 0.04 0.06 0.07 0.06 0.05 0.04 0.03 0.02 0.02 0.03 0.03 0.04 0.05 0.08 0.11
0.00 0.00 0.00 0.00 0.00 0.01 0.02 0.01 0.01 0.01 0.01 0.00 0.00 0.00 0.01 0.02 0.02 0.01 0.02 0.02 0.02 0.01 0.01 0.01 0.01 0.01 0.01 0.02 0.03 0.04 0.06 0.05 0.04 0.03 0.03 0.02 0.02 0.03 0.04 0.04 0.05 0.07 0.09
MSLP
1013.43 1013.21 1012.92 1012.60 1012.28 1012.00 1011.80 1011.68 1011.65 1011.69 1011.80 1011.93 1012.04 1012.13 1012.18 1012.17 1012.12 1012.06 1011.99 1011.96 1011.96 1012.03 1012.15 1012.33 1012.55 1012.80 1013.04 1013.28 1013.51 1013.72 1013.92 1014.12 1014.34 1014.59 1014.88 1015.18 1015.51 1015.84 1016.16 1016.44 1016.70 1016.93 1017.14
1013.48 1013.26 1012.99 1012.69 1012.39 1012.11 1011.89 1011.74 1011.67 1011.67 1011.71 1011.79 1011.87 1011.93 1011.95 1011.93 1011.89 1011.82 1011.77 1011.75 1011.78 1011.87 1012.03 1012.25 1012.51 1012.78 1013.06 1013.31 1013.55 1013.76 1013.96 1014.17 1014.40 1014.67 1014.97 1015.30 1015.65 1016.00 1016.32 1016.61 1016.87 1017.10 1017.30
1013.49 1013.29 1013.05 1012.79 1012.52 1012.27 1012.04 1011.87 1011.75 1011.69 1011.68 1011.71 1011.74 1011.76 1011.76 1011.74 1011.69 1011.62 1011.57 1011.56 1011.59 1011.70 1011.88 1012.11 1012.39 1012.69 1012.99 1013.26 1013.51 1013.73 1013.94 1014.16 1014.40 1014.67 1014.99 1015.34 1015.70 1016.06 1016.40 1016.71 1016.98 1017.21 1017.42
1013.46 1013.29 1013.10 1012.89 1012.67 1012.44 1012.22 1012.03 1011.87 1011.76 1011.69 1011.66 1011.65 1011.65 1011.63 1011.60 1011.54 1011.48 1011.42 1011.39 1011.42 1011.52 1011.69 1011.92 1012.21 1012.52 1012.83 1013.12 1013.39 1013.62 1013.84 1014.07 1014.32 1014.60 1014.92 1015.28 1015.66 1016.04 1016.40 1016.73 1017.02 1017.28 1017.50
1013.40 1013.26 1013.12 1012.96 1012.79 1012.60 1012.39 1012.18 1011.99 1011.84 1011.72 1011.65 1011.61 1011.59 1011.56 1011.52 1011.47 1011.39 1011.32 1011.28 1011.28 1011.35 1011.49 1011.71 1011.99 1012.30 1012.62 1012.93 1013.21 1013.46 1013.70 1013.94 1014.19 1014.48 1014.81 1015.17 1015.56 1015.96 1016.34 1016.69 1017.01 1017.29 1017.55
1013.32 1013.20 1013.10 1012.99 1012.87 1012.70 1012.51 1012.30 1012.09 1011.90 1011.76 1011.66 1011.60 1011.58 1011.56 1011.53 1011.48 1011.40 1011.31 1011.24 1011.20 1011.23 1011.33 1011.52 1011.77 1012.07 1012.39 1012.71 1013.01 1013.28 1013.54 1013.79 1014.05 1014.35 1014.68 1015.04 1015.43 1015.84 1016.23 1016.61 1016.96 1017.28 1017.56
1013.26 1013.14 1013.06 1012.99 1012.89 1012.76 1012.58 1012.37 1012.15 1011.95 1011.79 1011.69 1011.64 1011.63 1011.62 1011.61 1011.57 1011.50 1011.40 1011.29 1011.21 1011.19 1011.25 1011.38 1011.60 1011.88 1012.20 1012.52 1012.83 1013.12 1013.39 1013.66 1013.93 1014.22 1014.55 1014.91 1015.30 1015.71 1016.12 1016.51 1016.89 1017.23 1017.54
1013.22 1013.09 1013.02 1012.96 1012.89 1012.77 1012.61 1012.40 1012.19 1011.99 1011.84 1011.75 1011.72 1011.73 1011.76 1011.77 1011.75 1011.68 1011.57 1011.45 1011.33 1011.25 1011.25 1011.34 1011.51 1011.76 1012.05 1012.37 1012.68 1012.98 1013.26 1013.53 1013.81 1014.10 1014.42 1014.78 1015.16 1015.57 1015.99 1016.39 1016.78 1017.14 1017.47
1013.25 1013.10 1013.02 1012.96 1012.89 1012.79 1012.63 1012.44 1012.24 1012.06 1011.92 1011.86 1011.85 1011.89 1011.95 1011.99 1011.99 1011.93 1011.82 1011.67 1011.52 1011.40 1011.34 1011.37 1011.49 1011.69 1011.95 1012.24 1012.54 1012.83 1013.11 1013.39 1013.66 1013.96 1014.28 1014.63 1015.01 1015.41 1015.82 1016.23 1016.62 1016.99 1017.33
1013.35 1013.18 1013.08 1013.02 1012.95 1012.85 1012.71 1012.53 1012.35 1012.18 1012.06 1012.01 1012.03 1012.09 1012.17 1012.23 1012.24 1012.19 1012.07 1011.91 1011.73 1011.57 1011.47 1011.44 1011.51 1011.65 1011.86 1012.10 1012.37 1012.64 1012.91 1013.17 1013.44 1013.74 1014.06 1014.41 1014.79 1015.19 1015.60 1016.00 1016.39 1016.76 1017.09
1013.54 1013.35 1013.23 1013.16 1013.08 1012.99 1012.86 1012.69 1012.52 1012.37 1012.26 1012.22 1012.24 1012.30 1012.38 1012.44 1012.46 1012.40 1012.28 1012.11 1011.91 1011.72 1011.58 1011.50 1011.50 1011.58 1011.72 1011.91 1012.13 1012.36 1012.59 1012.84 1013.11 1013.40 1013.73 1014.09 1014.48 1014.88 1015.29 1015.69 1016.07 1016.42 1016.75
1013.79 1013.59 1013.46 1013.38 1013.30 1013.21 1013.08 1012.93 1012.77 1012.62 1012.51 1012.45 1012.45 1012.49 1012.55 1012.59 1012.59 1012.53 1012.40 1012.22 1012.01 1011.80 1011.63 1011.50 1011.45 1011.46 1011.52 1011.64 1011.79 1011.96 1012.16 1012.39 1012.64 1012.94 1013.28 1013.65 1014.05 1014.46 1014.88 1015.27 1015.64 1015.99 1016.30
1014.06 1013.86 1013.74 1013.65 1013.58 1013.49 1013.37 1013.23 1013.07 1012.91 1012.78 1012.69 1012.65 1012.65 1012.66 1012.66 1012.63 1012.55 1012.41 1012.22 1012.01 1011.79 1011.60 1011.44 1011.33 1011.27 1011.27 1011.30 1011.38 1011.48 1011.63 1011.82 1012.07 1012.36 1012.71 1013.10 1013.52 1013.95 1014.36 1014.76 1015.13 1015.46 1015.77
1014.30 1014.12 1014.00 1013.93 1013.86 1013.78 1013.68 1013.53 1013.37 1013.20 1013.04 1012.90 1012.81 1012.74 1012.70 1012.64 1012.58 1012.47 1012.32 1012.14 1011.93 1011.72 1011.51 1011.33 1011.18 1011.06 1010.99 1010.94 1010.94 1010.98 1011.07 1011.22 1011.44 1011.73 1012.08 1012.48 1012.92 1013.36 1013.78 1014.18 1014.55 1014.88 1015.19
1014.47 1014.32 1014.22 1014.16 1014.11 1014.04 1013.94 1013.80 1013.63 1013.44 1013.24 1013.06 1012.91 1012.78 1012.67 1012.57 1012.46 1012.33 1012.18 1012.00 1011.81 1011.61 1011.41 1011.21 1011.04 1010.88 1010.74 1010.62 1010.55 1010.52 1010.55 1010.65 1010.84 1011.11 1011.45 1011.85 1012.29 1012.73 1013.16 1013.57 1013.93 1014.26 1014.57
1014.55 1014.43 1014.36 1014.31 1014.27 1014.21 1014.12 1013.98 1013.80 1013.60 1013.38 1013.16 1012.96 1012.78 1012.62 1012.47 1012.33 1012.19 1012.04 1011.87 1011.70 1011.51 1011.32 1011.13 1010.94 1010.75 1010.56 1010.40 1010.26 1010.16 1010.14 1010.18 1010.33 1010.56 1010.88 1011.25 1011.67 1012.11 1012.53 1012.93 1013.29 1013.63 1013.94
1014.53 1014.44 1014.39 1014.36 1014.33 1014.28 1014.19 1014.06 1013.88 1013.66 1013.43 1013.19 1012.96 1012.75 1012.55 1012.38 1012.22 1012.07 1011.92 1011.77 1011.61 1011.45 1011.27 1011.08 1010.89 1010.68 1010.47 1010.27 1010.08 1009.94 1009.86 1009.86 1009.94 1010.12 1010.39 1010.72 1011.10 1011.50 1011.90 1012.28 1012.64 1012.97 1013.29
1014.45 1014.38 1014.35 1014.32 1014.30 1014.25 1014.17 1014.04 1013.86 1013.65 1013.41 1013.16 1012.93 1012.70 1012.50 1012.32 1012.15 1011.99 1011.84 1011.69 1011.54 1011.38 1011.21 1011.03 1010.84 1010.63 1010.41 1010.19 1009.98 1009.81 1009.69 1009.64 1009.67 1009.79 1009.99 1010.26 1010.57 1010.92 1011.28 1011.63 1011.96 1012.30 1012.63
1014.33 1014.28 1014.26 1014.24 1014.21 1014.16 1014.07 1013.94 1013.76 1013.56 1013.33 1013.10 1012.87 1012.66 1012.45 1012.27 1012.09 1011.92 1011.75 1011.58 1011.42 1011.24 1011.07 1010.88 1010.69 1010.49 1010.28 1010.07 1009.86 1009.68 1009.54 1009.46 1009.44 1009.50 1009.63 1009.83 1010.07 1010.35 1010.65 1010.96 1011.28 1011.60 1011.93
1014.23 1014.19 1014.16 1014.14 1014.09 1014.03 1013.92 1013.78 1013.61 1013.41 1013.20 1013.00 1012.79 1012.59 1012.40 1012.20 1012.01 1011.81 1011.60 1011.39 1011.17 1010.96 1010.75 1010.55 1010.36 1010.16 1009.98 1009.79 1009.62 1009.46 1009.33 1009.24 1009.19 1009.20 1009.27 1009.40 1009.57 1009.79 1010.03 1010.30 1010.59 1010.90 1011.23
1014.15 1014.12 1014.08 1014.04 1013.97 1013.88 1013.75 1013.60 1013.42 1013.23 1013.04 1012.86 1012.68 1012.49 1012.30 1012.09 1011.86 1011.61 1011.33 1011.04 1010.74 1010.46 1010.19 1009.96 1009.75 1009.57 1009.41 1009.28 1009.16 1009.05 1008.96 1008.89 1008.85 1008.84 1008.87 1008.95 1009.06 1009.22 1009.42 1009.65 1009.92 1010.21 1010.53
1014.10 1014.07 1014.02 1013.96 1013.86 1013.73 1013.57 1013.39 1013.20 1013.02 1012.85 1012.68 1012.52 1012.34 1012.14 1011.91 1011.62 1011.29 1010.91 1010.51 1010.11 1009.72 1009.37 1009.08 1008.85 1008.69 1008.58 1008.50 1008.46 1008.44 1008.42 1008.40 1008.39 1008.39 1008.42 1008.47 1008.55 1008.68 1008.84 1009.05 1009.30 1009.58 1009.89
1014.05 1014.02 1013.96 1013.86 1013.72 1013.56 1013.36 1013.16 1012.96 1012.77 1012.61 1012.46 1012.31 1012.14 1011.92 1011.64 1011.29 1010.86 1010.36 1009.84 1009.30 1008.80 1008.35 1007.99 1007.74 1007.58 1007.51 1007.52 1007.56 1007.63 1007.71 1007.77 1007.83 1007.87 1007.92 1007.98 1008.06 1008.18 1008.33 1008.53 1008.76 1009.03 1009.32
1013.97 1013.93 1013.85 1013.72 1013.55 1013.34 1013.10 1012.87 1012.66 1012.48 1012.32 1012.19 1012.05 1011.88 1011.64 1011.32 1010.89 1010.36 1009.75 1009.09 1008.42 1007.79 1007.25 1006.82 1006.53 1006.38 1006.36 1006.43 1006.57 1006.74 1006.92 1007.08 1007.22 1007.33 1007.42 1007.51 1007.61 1007.74 1007.90 1008.09 1008.32 1008.58 1008.85
1013.80 1013.76 1013.66 1013.50 1013.28 1013.04 1012.78 1012.52 1012.30 1012.13 1011.99 1011.88 1011.76 1011.59 1011.34 1010.98 1010.49 1009.88 1009.16 1008.38 1007.60 1006.86 1006.23 1005.74 1005.42 1005.28 1005.28 1005.42 1005.64 1005.90 1006.17 1006.43 1006.64 1006.82 1006.97 1007.10 1007.23 1007.38 1007.55 1007.75 1007.97 1008.22 1008.46
1013.52 1013.47 1013.35 1013.16 1012.92 1012.64 1012.36 1012.09 1011.88 1011.72 1011.61 1011.53 1011.44 1011.29 1011.04 1010.67 1010.15 1009.47 1008.68 1007.83 1006.96 1006.14 1005.45 1004.91 1004.57 1004.42 1004.45 1004.62 1004.90 1005.23 1005.56 1005.88 1006.16 1006.39 1006.59 1006.76 1006.92 1007.08 1007.27 1007.47 1007.68 1007.90 1008.12
Thickness
5695 5697 5699 5701 5703 5706 5709 5712 5715 5719 5722 5725 5728 5731 5733 5736 5738 5740 5743 5746 5748 5750 5751 5751 5751 5750 5750 5749 5749 5749 5749 5749 5749 5748 5748 5749 5749 5749 5749 5749 5749 5749 5749
5689 5690 5692 5694 5697 5700 5703 5706 5709 5713 5716 5720 5723 5726 5730 5732 5735 5737 5740 5743 5746 5748 5749 5749 5749 5749 5749 5748 5748 5748 5748 5747 5747 5747 5747 5747 5747 5747 5747 5747 5747 5747 5747
5684 5684 5685 5687 5690 5693 5696 5699 5703 5706 5710 5714 5717 5721 5725 5729 5732 5735 5737 5740 5743 5745 5747 5747 5748 5747 5747 5747 5747 5746 5746 5746 5746 5745 5745 5745 5745 5746 5745 5745 5745 5745 5745
5679 5679 5679 5681 5684 5686 5689 5692 5695 5698 5702 5706 5710 5715 5720 5724 5727 5731 5734 5737 5740 5742 5744 5745 5745 5745 5745 5745 5745 5745 5745 5744 5744 5744 5744 5744 5744 5744 5744 5744 5743 5743 5743
5674 5674 5674 5676 5678 5680 5682 5685 5689 5692 5695 5699 5704 5709 5714 5718 5722 5726 5730 5733 5735 5738 5740 5741 5742 5742 5743 5743 5743 5743 5743 5743 5742 5742 5742 5742 5742 5742 5742 5742 5742 5741 5741
5670 5670 5670 5671 5672 5673 5676 5678 5681 5685 5689 5692 5698 5702 5707 5712 5716 5720 5724 5728 5731 5733 5736 5737 5739 5739 5740 5741 5741 5742 5742 5742 5741 5741 5741 5741 5740 5740 5740 5740 5740 5739 5739
5667 5666 5666 5666 5667 5668 5670 5672 5675 5678 5682 5686 5689 5692 5698 5704 5709 5713 5718 5722 5725 5728 5730 5733 5734 5735 5737 5738 5739 5739 5740 5740 5739 5739 5739 5739 5738 5738 5738 5738 5738 5738 5737
5663 5663 5662 5662 5663 5664 5665 5667 5670 5672 5675 5680 5682 5683 5685 5691 5700 5707 5711 5715 5718 5722 5725 5727 5730 5732 5733 5734 5736 5737 5738 5737 5737 5738 5738 5737 5737 5736 5736 5736 5736 5736 5735
5661 5660 5660 5659 5660 5660 5661 5663 5665 5667 5669 5673 5677 5678 5678 5680 5688 5696 5702 5707 5711 5714 5718 5721 5724 5727 5729 5730 5732 5733 5734 5735 5735 5735 5735 5735 5735 5734 5734 5734 5734 5733 5733
5659 5658 5658 5657 5657 5657 5658 5659 5662 5663 5665 5667 5671 5675 5677 5680 5681 5684 5692 5698 5703 5707 5711 5715 5719 5722 5724 5726 5728 5730 5731 5732 5732 5732 5733 5733 5733 5732 5732 5732 5731 5731 5730
5658 5657 5656 5656 5655 5655 5655 5656 5658 5659 5662 5664 5666 5668 5671 5674 5677 5678 5680 5688 5694 5700 5705 5709 5713 5716 5719 5722 5724 5726 5728 5728 5729 5730 5730 5730 5730 5730 5730 5729 5729 5728 5728
5656 5655 5655 5654 5654 5653 5653 5654 5655 5657 5659 5661 5663 5665 5666 5668 5670 5673 5675 5679 5684 5692 5698 5703 5707 5711 5714 5717 5719 5721 5723 5724 5725 5726 5726 5727 5727 5727 5727 5726 5726 5726 5725
5654 5654 5653 5653 5652 5652 5652 5652 5653 5654 5656 5658 5660 5662 5664 5666 5668 5670 5672 5674 5678 5684 5690 5696 5701 5705 5708 5711 5714 5716 5718 5719 5721 5721 5722 5722 5723 5723 5724 5724 5723 5722 5722
5653 5653 5653 5652 5652 5651 5651 5651 5652 5653 5654 5655 5657 5658 5660 5663 5665 5667 5669 5670 5671 5675 5681 5687 5694 5699 5703 5705 5708 5710 5713 5714 5716 5717 5718 5718 5718 5719 5719 5719 5719 5719 5718
5655 5654 5653 5652 5651 5651 5651 5651 5650 5651 5652 5653 5654 5655 5657 5659 5661 5664 5666 5668 5668 5668 5672 5679 5686 5692 5697 5699 5702 5705 5707 5709 5711 5712 5713 5713 5714 5714 5714 5715 5715 5714 5714
5656 5654 5652 5651 5651 5650 5650 5650 5650 5650 5651 5651 5652 5653 5654 5656 5658 5660 5662 5664 5666 5667 5667 5674 5679 5685 5690 5694 5696 5698 5701 5703 5705 5707 5708 5708 5709 5709 5709 5709 5710 5709 5709
5656 5655 5653 5652 5651 5650 5649 5649 5649 5649 5649 5650 5650 5651 5652 5653 5654 5656 5658 5660 5662 5664 5664 5669 5674 5679 5683 5686 5689 5691 5694 5696 5698 5700 5702 5703 5704 5704 5704 5704 5704 5704 5704
5658 5656 5654 5652 5651 5650 5650 5649 5649 5649 5648 5648 5648 5648 5649 5651 5651 5652 5654 5656 5657 5660 5662 5664 5667 5672 5676 5679 5682 5684 5687 5690 5692 5694 5695 5696 5697 5698 5699 5699 5699 5699 5699
5659 5657 5655 5653 5652 5651 5650 5650 5649 5648 5647 5647 5646 5646 5646 5647 5647 5648 5650 5651 5653 5656 5658 5660 5662 5665 5669 5672 5675 5678 5680 5682 5684 5686 5688 5689 5691 5692 5693 5693 5693 5694 5694
5660 5658 5656 5654 5653 5652 5651 5651 5650 5648 5647 5646 5646 5645 5645 5646 5646 5646 5647 5648 5649 5651 5653 5655 5657 5660 5662 5666 5668 5670 5672 5674 5676 5679 5681 5683 5684 5685 5686 5687 5688 5688 5688
5661 5659 5657 5655 5654 5654 5653 5652 5650 5649 5647 5646 5645 5645 5645 5646 5646 5646 5646 5646 5647 5647 5649 5650 5652 5655 5657 5659 5662 5664 5665 5666 5669 5671 5673 5675 5677 5679 5680 5681 5682 5682 5683
5661 5659 5657 5655 5654 5654 5655 5654 5652 5649 5647 5645 5644 5644 5644 5645 5645 5646 5646 5647 5647 5646 5647 5647 5649 5650 5652 5655 5657 5658 5659 5660 5662 5665 5666 5668 5670 5671 5673 5675 5676 5676 5676
5661 5659 5657 5655 5654 5654 5655 5654 5653 5650 5647 5646 5644 5643 5643 5644 5643 5643 5644 5645 5646 5647 5648 5647 5647 5648 5649 5652 5652 5654 5655 5656 5657 5659 5659 5661 5663 5664 5667 5668 5669 5670 5670
5661 5659 5658 5656 5654 5655 5655 5654 5652 5649 5647 5645 5644 5643 5642 5642 5642 5642 5642 5642 5643 5644 5645 5646 5647 5647 5648 5649 5650 5651 5651 5652 5652 5653 5654 5655 5657 5658 5661 5662 5663 5664 5664
5662 5660 5658 5656 5655 5654 5655 5654 5652 5648 5646 5645 5644 5643 5642 5641 5642 5642 5641 5640 5641 5642 5644 5645 5645 5645 5646 5647 5648 5647 5646 5647 5648 5648 5649 5650 5651 5652 5654 5655 5657 5658 5658
5662 5660 5658 5657 5655 5654 5654 5653 5652 5647 5645 5644 5643 5642 5642 5641 5642 5641 5639 5638 5638 5640 5640 5642 5642 5642 5643 5644 5645 5644 5644 5643 5643 5644 5645 5645 5645 5644 5646 5649 5650 5651 5652